Back to catalog

DELTA 1 DEB

AliveSSO
NORAD 10875·DEBRIS·🇺🇸 United States

Launched Jul 29, 1976 from Vandenberg Space Force Base

Loading…

Next Passes (next 24 hours)

TLE

FreshSource: Space-Track

Epoch: Sep 14, 2026, 08:16 UTC

1 10875U 76077DD  26257.34511076  .00000014  00000-0  40376-3 0  9995
2 10875 101.9888 211.8641 0033534  62.2972  92.4137 12.47083108280232

Track DELTA 1 DEB in real time with AllMySat

Download on the App Store